This is the latest recevied weather packets stored in our database for station/object KE8RXN. If no packets are shown the sender has not sent any weather packets the latest 10 day(s).
| Time | Temp. | Humidity | Pressure | Rain* | Wind** | Luminosity | Snow |
|---|---|---|---|---|---|---|---|
| 1777427511 | 9.44° C | 87% | 1016.5 hPa | 0 mm | - | 0 W/m² | - |
| 1777427206 | 9.44° C | 87% | 1016.6 hPa | 0 mm | - | 0 W/m² | - |
| 1777426905 | 9.44° C | 85% | 1016.7 hPa | 0 mm | - | 0 W/m² | - |
| 1777426602 | 10° C | 84% | 1016.8 hPa | 0 mm | - | 0 W/m² | - |
| 1777426298 | 10° C | 84% | 1016.4 hPa | 0 mm | - | 0 W/m² | - |
| 1777425993 | 10° C | 83% | 1016.4 hPa | 0 mm | - | 0 W/m² | - |
| 1777425688 | 10.56° C | 82% | 1016.5 hPa | 0 mm | - | 0 W/m² | - |
| 1777425383 | 10.56° C | 81% | 1016.5 hPa | 0 mm | - | 0 W/m² | - |
| 1777425080 | 10.56° C | 80% | 1016.4 hPa | 0 mm | - | 0 W/m² | - |
| 1777424776 | 10.56° C | 79% | 1016.5 hPa | 0 mm | - | 0 W/m² | - |
| 1777424471 | 11.11° C | 78% | 1016.4 hPa | 0 mm | - | 0 W/m² | - |
| 1777424167 | 11.11° C | 77% | 1016.5 hPa | 0 mm | - | 0 W/m² | - |
| 1777423865 | 11.67° C | 76% | 1016.3 hPa | 0 mm | - | 0 W/m² | - |
| 1777423560 | 11.67° C | 76% | 1016.2 hPa | 0 mm | - | 0 W/m² | - |
| 1777423256 | 11.67° C | 74% | 1016.2 hPa | 0 mm | - | 0 W/m² | - |
| 1777422950 | 12.22° C | 73% | 1016.2 hPa | 0 mm | - | 2 W/m² | - |
| 1777422646 | 12.22° C | 73% | 1016.6 hPa | 0 mm | - | 3 W/m² | - |
| 1777422342 | 12.22° C | 73% | 1016.6 hPa | 0 mm | - | 6 W/m² | - |
| 1777422036 | 12.22° C | 72% | 1016.6 hPa | 0 mm | - | 8 W/m² | - |
| 1777421731 | 12.78° C | 72% | 1016.6 hPa | 0 mm | - | 11 W/m² | - |
| 1777421427 | 12.78° C | 72% | 1016.6 hPa | 0 mm | - | 12 W/m² | - |
| 1777421117 | 12.78° C | 71% | 1016.7 hPa | 0 mm | - | 14 W/m² | - |
| 1777420814 | 12.78° C | 71% | 1016.4 hPa | 0 mm | - | 18 W/m² | - |
| 1777420510 | 12.78° C | 71% | 1016.2 hPa | 0 mm | - | 23 W/m² | - |
| 1777420207 | 12.78° C | 71% | 1016.1 hPa | 0 mm | - | 19 W/m² | - |
* Rain latest hour (hover to see other rain measurements)
** Current wind speed in m/s (hover to see current wind gust speed)